This demonstration page uses our WeatherBlox Daily Observations layout. Learn more.

Left ArrowRight Arrow

Hourly Observations for November 29, 2021

Temp ( °F °C ) Dew Point ( °F °C ) Humidity (%) Winds ( mph kmh ) Pressure ( in mb ) Visibility ( mi km ) Precip ( " mm )
12:15 am 00:15 Mostly Cloudy 41 5 23 -5 49 49 NW 20 31 29.91 1013 10 16 0.00 0.00
12:35 am 00:35 Clear 41 5 23 -5 49 49 NW 23 37 29.90 1013 10 16 0.00 0.00
12:55 am 00:55 Clear 41 5 25 -4 53 53 NNW 26 43 29.90 1013 10 16 0.00 0.00
1:15 am 01:15 Clear 41 5 25 -4 53 53 NNW 8 13 29.94 1014 10 16 0.00 0.00
1:35 am 01:35 Clear 39 4 28 -2 65 65 NNW 12 19 29.96 1014 10 16 0.00 0.00
1:55 am 01:55 Clear 37 3 28 -2 70 70 NW 8 13 29.95 1014 10 16 0.00 0.00
2:15 am 02:15 Clear 37 3 27 -3 65 65 NNW 14 22 29.96 1014 10 16 0.00 0.00
2:35 am 02:35 Clear 36 2 27 -3 70 70 NW 13 20 29.96 1015 10 16 0.00 0.00
2:55 am 02:55 Clear 36 2 27 -3 70 70 NW 12 19 29.97 1015 10 16 0.00 0.00
3:15 am 03:15 Clear 36 2 27 -3 70 70 WNW 12 19 29.97 1015 10 16 0.00 0.00
3:35 am 03:35 Clear 36 2 25 -4 65 65 WNW 13 20 29.97 1015 10 16 0.00 0.00
3:55 am 03:55 Clear 36 2 25 -4 65 65 WNW 7 11 29.97 1015 10 16 0.00 0.00
4:15 am 04:15 Clear 34 1 25 -4 70 70 NW 15 24 29.96 1015 10 16 0.00 0.00
4:35 am 04:35 Clear 36 2 25 -4 65 65 NW 13 20 29.97 1015 10 16 0.00 0.00
4:55 am 04:55 Clear 34 1 27 -3 75 75 WNW 13 20 29.97 1015 10 16 0.00 0.00
5:15 am 05:15 Clear 34 1 27 -3 75 75 WNW 14 22 29.97 1015 10 16 0.00 0.00
5:35 am 05:35 Clear 34 1 27 -3 75 75 WNW 10 17 29.97 1015 10 16 0.00 0.00
5:55 am 05:55 Clear 34 1 27 -3 75 75 WNW 8 13 29.99 1016 10 16 0.00 0.00
6:15 am 06:15 Partly Cloudy 34 1 27 -3 75 75 NW 5 7 29.99 1016 10 16 0.00 0.00
6:35 am 06:35 Partly Cloudy 34 1 27 -3 75 75 Calm 30.01 1016 10 16 0.00 0.00
6:55 am 06:55 Mostly Cloudy 34 1 28 -2 81 81 WNW 7 11 30.01 1016 10 16 0.00 0.00
7:15 am 07:15 Partly Cloudy 34 1 28 -2 81 81 NW 10 17 30.02 1017 10 16 0.00 0.00
7:35 am 07:35 Partly Cloudy 34 1 28 -2 81 81 NW 7 11 30.03 1017 10 16 0.00 0.00
7:55 am 07:55 Mostly Cloudy 36 2 28 -2 75 75 NW 5 7 30.03 1017 10 16 0.00 0.00
8:15 am 08:15 Partly Cloudy 37 3 30 -1 75 75 NW 13 20 30.04 1017 10 16 0.00 0.00
8:35 am 08:35 Partly Cloudy 37 3 30 -1 75 75 NW 9 15 30.04 1017 10 16 0.00 0.00
8:55 am 08:55 Partly Cloudy 37 3 30 -1 75 75 NW 8 13 30.05 1018 10 16 0.00 0.00
9:15 am 09:15 Partly Cloudy 39 4 30 -1 70 70 NW 16 26 30.06 1018 10 16 0.00 0.00
9:35 am 09:35 Sunny 41 5 30 -1 66 66 NNW 18 30 30.05 1018 10 16 0.00 0.00
9:55 am 09:55 Sunny 41 5 30 -1 66 66 NNW 18 30 30.05 1018 10 16 0.00 0.00
10:15 am 10:15 Mostly Cloudy 43 6 30 -1 61 61 NW 15 24 30.06 1018 10 16 0.00 0.00
10:35 am 10:35 Cloudy 43 6 30 -1 61 61 NW 15 24 30.06 1018 10 16 0.00 0.00
10:55 am 10:55 Mostly Cloudy 43 6 30 -1 61 61 NNW 15 24 30.06 1018 10 16 0.00 0.00
11:15 am 11:15 Cloudy 43 6 30 -1 61 61 NW 16 26 30.05 1018 10 16 0.00 0.00
11:35 am 11:35 Cloudy 43 6 30 -1 61 61 NNW 13 20 30.05 1018 10 16 0.00 0.00
11:55 am 11:55 Cloudy 43 6 30 -1 61 61 NNW 13 20 30.04 1017 10 16 0.00 0.00
12:15 pm 12:15 Cloudy 41 5 30 -1 66 66 NNW 14 22 30.04 1017 10 16 0.00 0.00
12:35 pm 12:35 Mostly Cloudy 45 7 30 -1 57 57 NNW 14 22 30.03 1017 10 16 0.00 0.00
12:55 pm 12:55 Cloudy 43 6 30 -1 61 61 NNW 13 20 30.03 1017 10 16 0.00 0.00
1:15 pm 13:15 Cloudy 43 6 30 -1 61 61 NW 15 24 30.03 1017 10 16 0.00 0.00
1:35 pm 13:35 Cloudy 43 6 30 -1 61 61 NW 15 24 30.03 1017 10 16 0.00 0.00
1:55 pm 13:55 Cloudy 45 7 28 -2 53 53 NNW 16 26 30.03 1017 10 16 0.00 0.00
2:15 pm 14:15 Cloudy 43 6 28 -2 57 57 NNW 17 28 30.03 1017 10 16 0.00 0.00
2:35 pm 14:35 Cloudy 43 6 30 -1 61 61 NNW 10 17 30.03 1017 10 16 0.00 0.00
2:55 pm 14:55 Cloudy 43 6 30 -1 61 61 NW 12 19 30.03 1017 10 16 0.00 0.00
3:15 pm 15:15 Cloudy 43 6 28 -2 57 57 NNW 15 24 30.03 1017 10 16 0.00 0.00
3:35 pm 15:35 Cloudy 45 7 30 -1 57 57 N 12 19 30.04 1017 10 16 0.00 0.00
3:55 pm 15:55 Cloudy 43 6 28 -2 57 57 N 9 15 30.04 1017 10 16 0.00 0.00
4:15 pm 16:15 Mostly Cloudy 43 6 28 -2 57 57 N 7 11 30.05 1018 10 16 0.00 0.00
4:35 pm 16:35 Partly Cloudy 41 5 28 -2 61 61 N 6 9 30.05 1018 10 16 0.00 0.00
4:55 pm 16:55 Partly Cloudy 41 5 28 -2 61 61 NNE 3 6 30.05 1018 10 16 0.00 0.00
5:15 pm 17:15 Partly Cloudy 39 4 28 -2 65 65 Calm 30.07 1018 10 16 0.00 0.00
5:35 pm 17:35 Clear 37 3 28 -2 70 70 Calm 30.07 1018 10 16 0.00 0.00
5:55 pm 17:55 Clear 37 3 28 -2 70 70 Calm 30.07 1018 10 16 0.00 0.00
6:15 pm 18:15 Partly Cloudy 34 1 28 -2 81 81 Calm 30.07 1018 10 16 0.00 0.00
6:35 pm 18:35 Partly Cloudy 36 2 28 -2 75 75 Calm 30.07 1018 10 16 0.00 0.00
6:55 pm 18:55 Clear 34 1 28 -2 81 81 Calm 30.08 1019 10 16 0.00 0.00
7:15 pm 19:15 Mostly Cloudy 32 0 28 -2 87 87 Calm 30.09 1019 10 16 0.00 0.00
7:35 pm 19:35 Mostly Cloudy 32 0 28 -2 87 87 Calm 30.10 1019 10 16 0.00 0.00
7:55 pm 19:55 Mostly Cloudy 32 0 28 -2 87 87 Calm 30.10 1019 10 16 0.00 0.00
8:15 pm 20:15 Partly Cloudy 32 0 28 -2 87 87 Calm 30.10 1019 10 16 0.00 0.00
8:35 pm 20:35 Clear 32 0 28 -2 87 87 Calm 30.10 1019 10 16 0.00 0.00
8:55 pm 20:55 Clear 30 -1 28 -2 93 93 Calm 30.10 1019 10 16 0.00 0.00
9:15 pm 21:15 Clear 30 -1 28 -2 93 93 Calm 30.11 1020 10 16 0.00 0.00
9:35 pm 21:35 Clear 32 0 28 -2 87 87 SSW 3 6 30.11 1020 10 16 0.00 0.00
9:55 pm 21:55 Clear 30 -1 27 -3 86 86 Calm 30.11 1020 10 16 0.00 0.00
10:15 pm 22:15 Clear 28 -2 27 -3 93 93 Calm 30.12 1020 10 16 0.00 0.00
10:35 pm 22:35 Clear 30 -1 27 -3 86 86 Calm 30.11 1020 10 16 0.00 0.00
10:55 pm 22:55 Clear 30 -1 27 -3 86 86 W 3 6 30.11 1020 10 16 0.00 0.00
11:15 pm 23:15 Clear 30 -1 27 -3 86 86 Calm 30.11 1020 10 16 0.00 0.00
11:35 pm 23:35 Clear 30 -1 28 -2 93 93 WSW 3 6 30.11 1020 10 16 0.00 0.00
11:55 pm 23:55 Clear 30 -1 28 -2 93 93 W 5 7 30.12 1020 10 16 0.00 0.00

Powered by AerisWeather